Home > Weather > Livonia > Past weeks

Flag for USA Past Weather in Livonia, Michigan, USA — Yesterday and Last 2 Weeks

Now
76 °F

Thunderstorms. Fog.


Feels Like: 76 °F
Forecast: 77 / 92 °F
Wind: 13 mph from Southwest

Location: Detroit Metropolitan Wayne County Airport

Current Time: Jul 25, 2016 at 6:08:48 AM

Latest Report: Jul 25, 2016 at 4:53 AM


Visibility: 3 mi

Pressure: 29.88 "Hg

Humidity: 88%

Dew Point: 72 °F

Location of LivoniaLocation

Past Weather in Livonia — Graph

°F

Livonia Temperature Yesterday

Maximum temperature yesterday: 86 °F (at 5:53 PM)
Minimum temperature yesterday: 75 °F (at 1:53 PM)
Average temperature yesterday: 79 °F

High & Low Weather Summary for the Past Weeks

 TemperatureHumidityPressure
High96 °F (Jul 23, 3:53 PM)94% (Jul 22, 7:00 AM)30.28 "Hg (Jul 22, 7:00 AM)
Low62 °F (Jul 19, 4:53 AM)30% (Jul 23, 1:53 PM)29.78 "Hg (Jul 14, 5:53 PM)
Average78 °F64%30.01 "Hg
* Reported Jul 10 4:53 AM — Jul 25 4:53 AM, Livonia, Weather by CustomWeather, © 2016

Note: Actual official high and low records may vary slightly from our data, if they occured in-between our weather recording intervals... More about our weather records

Advertising

Livonia Weather History for the Previous 24 Hours

Scroll right to see more
 ConditionsComfort  
Time TempWeatherWind HumidityBarometerVisibility
4:53 AM
Mon, Jul 25
76 °FThunderstorms. Fog.13 mph88%29.88 "Hg3 mi
3:53 AM81 °FThunderstorms. Overcast.18 mph82%29.86 "Hg7 mi
2:53 AM79 °FOvercast.9 mph84%29.86 "Hg7 mi
1:53 AM80 °FPassing clouds.9 mph79%29.88 "Hg9 mi
12:53 AM78 °FPartly cloudy.7 mph84%29.88 "Hg9 mi
11:53 PM
Sun, Jul 24
78 °FPassing clouds.7 mph82%29.88 "Hg10 mi
10:53 PM77 °FPassing clouds.8 mph85%29.90 "Hg10 mi
9:53 PM78 °FScattered clouds.6 mph79%29.90 "Hg10 mi
8:53 PM79 °FScattered clouds.7 mph77%29.89 "Hg10 mi
7:53 PM83 °FPartly sunny.9 mph70%29.90 "Hg10 mi
6:53 PM84 °FBroken clouds.12 mph65%29.91 "Hg10 mi
5:53 PM86 °FBroken clouds.12 mph61%29.90 "Hg10 mi
4:53 PM84 °FBroken clouds.14 mph65%29.90 "Hg10 mi
3:53 PM79 °FBroken clouds.5 mph74%29.93 "Hg10 mi
2:53 PM76 °FMore clouds than sun.10 mph82%29.95 "Hg10 mi
1:53 PM75 °FMore clouds than sun.9 mph88%29.96 "Hg10 mi
12:53 PM76 °FLight rain. Fog.14 mph88%29.97 "Hg6 mi
11:53 AM78 °FLight rain. Mostly cloudy.10 mph82%29.96 "Hg8 mi
10:53 AM79 °FCloudy.No wind77%29.94 "Hg9 mi
9:53 AM80 °FLight rain. Overcast.7 mph74%29.95 "Hg9 mi
8:53 AM80 °FMostly cloudy.6 mph69%29.94 "Hg9 mi
7:53 AM79 °FLight rain. Partly sunny.7 mph69%29.93 "Hg9 mi
6:53 AM78 °FPartly cloudy.7 mph74%29.92 "Hg10 mi
Weather by CustomWeather, © 2016

See weather overviewHow to use our weather pages